Flag for Germany Weather past 2 weeks in Castrop-Rauxel, North Rhine-Westphalia, Germany

Now
45 °F

Partly sunny.


Feels Like: 37 °F
Forecast: 40 / 49 °F
Wind: 17 mph from West

Location: Dortmund / Wickede

Current Time: Mar 30, 2015 at 12:04:52 PM

Latest Report: Mar 30, 2015 at 11:20 AM


Visibility: N/A

Pressure: 29.56 "Hg

Humidity: 61%

Dew point: 32 °F

Location of Castrop-RauxelLocation

Historic Weather in Castrop-Rauxel — Graph

°F

Castrop-Rauxel temperature yesterday

Maximum temperature yesterday: 52 °F (at 5:50 PM)
Minimum temperature yesterday: 46 °F (at 8:50 PM)
Average temperature yesterday: 49 °F

Past Weeks' High & Low Weather Summary

 TemperatureHumidityPressure
High61 °F (Mar 17, 2:50 PM)93% (Mar 16, 6:20 AM)30.36 "Hg (Mar 16, 6:20 AM)
Low28 °F (Mar 23, 5:20 AM)39% (Mar 17, 3:20 PM)29.21 "Hg (Mar 29, 7:20 PM)
Average44 °F74%30.01 "Hg
* Reported Mar 15 9:20 AM — Mar 30 10:50 AM, Castrop-Rauxel, Weather by CustomWeather, © 2015

Note: Actual official high and low records may vary slightly from our data, if they occured in-between our weather recording intervals... More about our weather records

Advertising

Castrop-Rauxel weather history for previous 24 hours

 ConditionsComfort  
Time TempWeatherWind HumidityBarometerVisibility
10:50 AM
Mon, Mar 30
43 °FScattered clouds.17 mph66%29.56 "HgN/A
10:20 AM43 °FScattered clouds.16 mph61%29.53 "HgN/A
9:50 AM43 °FScattered clouds.20 mph66%29.53 "HgN/A
9:20 AM43 °FScattered clouds.17 mph71%29.50 "HgN/A
8:50 AM43 °FScattered clouds.16 mph71%29.50 "HgN/A
8:20 AM43 °FScattered clouds.17 mph71%29.47 "HgN/A
7:50 AM43 °FPassing clouds.20 mph71%29.47 "HgN/A
7:20 AM43 °FPassing clouds.14 mph71%29.45 "HgN/A
6:50 AM41 °FPassing clouds.15 mph76%29.45 "HgN/A
6:20 AM41 °FPassing clouds.16 mph76%29.45 "HgN/A
5:50 AM41 °FPassing clouds.17 mph81%29.42 "HgN/A
5:20 AM41 °FPassing clouds.17 mph81%29.42 "HgN/A
10:50 PM
Sun, Mar 29
46 °FPassing clouds.17 mph71%29.33 "HgN/A
10:20 PM46 °FPassing clouds.20 mph76%29.30 "HgN/A
9:50 PM48 °FPassing clouds.17 mph76%29.27 "HgN/A
9:20 PM48 °FPassing clouds.21 mph76%29.27 "HgN/A
8:50 PM46 °FLight rain. Partly sunny.24 mph82%29.24 "HgN/A
8:20 PM52 °FThundershowers. Partly sunny.28 mph77%29.21 "Hg6 mi
7:50 PM52 °FLight rain. Partly sunny.30 mph77%29.21 "HgN/A
7:20 PM52 °FLight rain. Broken clouds.32 mph82%29.21 "HgN/A
6:50 PM52 °FLight rain. Broken clouds.28 mph82%29.24 "Hg4 mi
6:20 PM52 °FLight rain. Partly sunny.29 mph82%29.24 "Hg3 mi
5:50 PM52 °FLight rain. Partly sunny.25 mph82%29.27 "Hg3 mi
5:20 PM50 °FLight rain. Partly sunny.24 mph88%29.30 "Hg4 mi
4:50 PM50 °FPartly sunny.21 mph88%29.33 "HgN/A
4:20 PM50 °FLight rain. Partly sunny.21 mph88%29.33 "Hg6 mi
3:50 PM50 °FBroken clouds.21 mph88%29.39 "HgN/A
3:20 PM50 °FLight rain. Partly sunny.23 mph82%29.39 "HgN/A
2:50 PM50 °FLight rain. Partly sunny.18 mph82%29.45 "HgN/A
2:20 PM50 °FLight rain. Partly sunny.17 mph82%29.47 "HgN/A
1:50 PM48 °FLight rain. Partly sunny.17 mph87%29.50 "HgN/A
1:20 PM48 °FLight rain. Partly sunny.22 mph82%29.50 "HgN/A
12:50 PM48 °FLight rain. Partly sunny.17 mph87%29.53 "HgN/A
12:20 PM48 °FLight rain. Partly sunny.20 mph87%29.56 "HgN/A
Weather by CustomWeather, © 2015

See weather overviewHow to use our weather pages